Hourly Weather Roundup
Issued by NWS Central Illinois

Home | Current Version | Previous Version | Text Only | Print | Product List | Glossary On
Versions: 1 2 3 4 5 6 7 8 9 10 11 12 13 14 15 16 17 18 19 20 21 22 23 24 25 26 27 28 29 30 31 32 33 34 35 36 37 38 39 40 41 42 43 44 45 46 47 48 49 50
000
NZUS43 KILX 241310
HWRILX

Area Weather Roundup
National Weather Service Lincoln IL
800 AM CDT MON JUL 24 2017

NOTE:  "FAIR" indicates few or no clouds below 12,000 feet, with
       no sigificant weather and/or obstructions to visibility.


CITY           SKY/WX    TMP DP  RH WIND       PRES   REMARKS
Bloomington    PTSUNNY   68  65  90 NE13      30.00R
Champaign      MOSUNNY   71  66  84 NE8       29.98R
Danville       MOSUNNY   69  67  93 NE10      29.95R
Decatur        MOSUNNY   71  67  87 NE8       29.98R
Effingham      SUNNY     73  70  88 N6        29.97R
Flora          SUNNY     76  71  83 N8        29.94S
Galesburg      CLOUDY    67  67  99 NE5       30.00S FOG
Jacksonville   MOSUNNY   70  64  82 N6        29.98R
Lacon          CLOUDY    67  64  92 NE8       29.99R
Lawrenceville  SUNNY     76  70  82 NE7       29.94R
Litchfield     SUNNY     70  66  87 N6        29.97S
$$


CITY           SKY/WX    TMP DP  RH WIND       PRES   REMARKS
Lincoln        MOSUNNY   70  69  95 NE5       29.97S
Macomb         SUNNY     67  64  91 N6        30.01R
Mattoon        SUNNY     71  68  90 NE7       29.96R
Mt Carmel AP   SUNNY     76  71  85 CALM      29.93S
Olney-Noble AP SUNNY     75  73  93 N3        29.95R
Paris AP       CLOUDY    69  67  93 NE5       29.98R
Peoria         CLOUDY    70  67  90 NE14      29.98R
Pontiac        MOSUNNY   68  67  96 NE12      30.00R
Rantoul        MOSUNNY   71  67  87 NE7       29.98R
Robinson       SUNNY     72  70  92 N3        29.95R
Springfield    SUNNY     73  67  81 N6        29.98R
Taylorville    MOSUNNY   70  67  90 N3        29.97R
$$

...REGIONAL REPORTS...


CITY           SKY/WX    TMP DP  RH WIND       PRES   REMARKS
Chicago O`Hare PTSUNNY   68  60  75 N12       29.99S
Kankakee       SUNNY     70  63  78 NE8       29.99R
Moline         CLOUDY    70  64  81 E8        30.00R
Mount Sterling SUNNY     68  64  85 N6        29.99R
Mount Vernon   SUNNY     76  71  85 N5        29.94R
Pittsfield     MOSUNNY   71  65  80 NE3       30.00R
Quincy         SUNNY     70  63  78 N7        29.99R
Rockford       MOSUNNY   68  59  73 NE14      30.03R
$$


CITY           SKY/WX    TMP DP  RH WIND       PRES   REMARKS
Burlington     SUNNY     69  64  84 N5        30.00R
Cedar Rapids   CLOUDY    64  64 100 NE8       30.02R
Des Moines     MOSUNNY   68  60  75 NE7       30.03R
Kirksville     SUNNY     68  63  84 NE9       30.03R
Ottumwa        SUNNY     66  62  87 N6        30.02R
St Louis       MOSUNNY   77  65  66 NE5       29.97R
$$


CITY           SKY/WX    TMP DP  RH WIND       PRES   REMARKS
Terre Haute    SUNNY     73  67  81 N5        29.96R
Evansville     SUNNY     77  72  84 CALM      29.93S
Indianapolis   PTSUNNY   72  66  81 N5        29.94R
Lafayette      SUNNY     70  66  87 N13       29.95R
Madison        PTSUNNY   63  59  87 NE7       30.04R
Milwaukee      PTSUNNY   67  59  75 N12G24    30.02R
$$






USA.gov is the U.S. government's official web portal to all federal, state and local government web resources and services.